Hourly Data Report for September 02, 2016

SHEARWATER RCS
NOVA SCOTIA

44°37'47.000" N
63°30'48.000" W
24.00 m
8205092
71264
AAW

Download Data

Hourly Data (September 2016)
Hourly Data Report for September 2, 2016
TIME Temp Definition
°C
Dew Point Definition
°C
Rel Hum Definition
%
Wind Dir Definition
10's deg

Wind Spd Definition
km/h
Visibility Definition
km
Stn Press Definition
kPa
Hmdx Definition


Wind Chill Definition


Weather Definition


00:00 16.6 15.6 94 0 1   100.67     LegendNANA
01:00 15.7 14.7 94   0   100.67     LegendNANA
02:00 17.3 16.4 95 32 9   100.68     LegendNANA
03:00 17.4 16.1 92 32 10   100.71     LegendNANA
04:00 16.8 15.3 91 32 6   100.71     LegendNANA
05:00 17.0 14.6 86 33 14   100.71     LegendNANA
06:00 16.9 14.3 85 32 12   100.75     LegendNANA
07:00 17.4 14.9 85 32 16   100.78     LegendNANA
08:00 18.2 15.2 83 32 19   100.80     LegendNANA
09:00 18.3 14.0 76 33 25   100.85     LegendNANA
10:00 17.8 13.5 76 34 26   100.87     LegendNANA
11:00 18.7 13.0 70 34 24   100.89     LegendNANA
12:00 19.3 12.8 66 33 25   100.92     LegendNANA
13:00 18.8 12.6 67 34 27   100.96     LegendNANA
14:00 19.9 13.2 65 34 25   101.00     LegendNANA
15:00 18.1 12.9 72 33 25   101.06     LegendNANA
16:00 18.2 12.3 68 35 24   101.12     LegendNANA
17:00 17.4 11.7 69 34 27   101.18     LegendNANA
18:00 16.7 10.2 65 34 22   101.23     LegendNANA
19:00 15.5 8.7 64 34 20   101.37     LegendNANA
20:00 14.4 8.8 69 34 12   101.45     LegendNANA
21:00 13.3 8.8 74 34 8   101.47     LegendNANA
22:00 13.0 9.0 77 33 10   101.50     LegendNANA
23:00 11.6 8.9 84 31 8   101.54     LegendNANA

Notes on Data Quality.

Legend

  • E = Estimated
  • M = Missing
  • NA = Not Available*
  • [empty] = Indicates an unobserved value
Date modified: